Погода в Семикаракорске

Россия / Ростовская область     47°31′04″N   40°48′41″E
темп.,
°C
ветер,
м/с
пор.,
м/с
влажн.,
%
обл.,
%
осадки,
мм/ч
давл.,
гПа
погр.,
м
1 августа, вс
вс100:00+25всв2254100 0.0 101016
03:00+25св225371 0.0 101022
06:00+25св116335 0.0 101111
09:00+31св214413 0.0 1011629
12:00+36всв13245 0.0 10102956
15:00+37ююз221845 0.0 10093615
18:00+36ю11195 0.0 10093492
21:00+28ссв353226 0.0 101082
2 августа, пн
пн200:00+26всв384878 0.0 1010195
03:00+23св345222 0.0 101054
06:00+24всв23537 0.0 101170
09:00+32в22277 0.0 1011436
12:00+38ююв12163 0.0 10103582
15:00+39ююз22159 0.0 10084011
18:00+38ююз221610 0.0 10082567
21:00+29ююв11254 0.0 100811
3 августа, вт
вт300:00+27юз11310 0.0 100911
03:00+26зюз01340 0.0 100911
06:00+26вюв11375 0.0 100911
09:00+34ююв11230 0.0 1009422
12:00+38юз32170 0.0 10083113
15:00+40зюз441538 0.0 10074194
18:00+37з77215 0.0 10071267
21:00+31зсз5113454 0.0 1009330
4 августа, ср
ср400:00+26с612581 0.0 1011397
03:00+23с497242 0.1 1012278
06:00+22с377752 0.0 1013270
09:00+28с56503 0.3 1014883
12:00+32с5533100 0.0 10142229
15:00+33с5525100 0.0 10142837
18:00+31с552767 0.0 10141979
21:00+25ссв3638100 0.0 101593
5 августа, чт
чт500:00+23ссв410423 0.0 1016180
03:00+21ссв49440 0.0 1016153
06:00+21ссв37485 0.0 1017139
09:00+29св443165 0.0 1017910
12:00+32св432175 0.0 10162386
15:00+34ссв43185 0.0 10152845
18:00+32ссв55203 0.0 10141352
21:00+25св47325 0.0 101594